Location: Unspecified
(0.0000°N, 0.0000°E)
Time: 12:39:12
(UTC+00:00)

Transit 2A - All Passes

Search period start: 07 October 2022 00:00
Search period end: 17 October 2022 00:00
Orbit: 601 x 956 km, 66.7° (Epoch: 06 October)

Date Brightness Start Highest point End Pass type
(mag) Time Alt. Az. Time Alt. Az. Time Alt. Az.
07 Oct - 07:15:01 10° NNE 07:18:33 17° ENE 07:22:15 10° ESE daylight
07 Oct - 08:56:19 10° NW 09:01:23 36° WSW 09:06:53 10° S daylight
07 Oct - 19:49:17 10° S 19:54:11 46° ESE 19:58:37 10° NE visible
08 Oct - 08:21:33 10° NNW 08:27:00 59° WSW 08:32:58 10° S daylight
08 Oct - 19:15:33 10° SSE 19:19:46 26° ESE 19:23:41 10° NE visible
08 Oct - 20:59:42 10° WSW 21:02:34 16° WNW 21:05:19 10° NW visible
09 Oct - 07:47:07 10° NNW 07:52:39 84° ENE 07:58:43 10° SSE daylight
09 Oct - 18:42:30 10° SSE 18:45:21 15° ESE 18:48:03 10° ENE visible
09 Oct - 20:24:05 10° SW 20:28:18 27° WNW 20:32:12 10° NNW visible
10 Oct - 07:12:59 10° N 07:18:20 51° ENE 07:24:10 10° SE daylight
10 Oct - 08:59:10 10° W 09:01:30 12° WSW 09:03:54 10° SW daylight
10 Oct - 19:49:10 10° SW 19:54:01 49° WNW 19:58:27 10° N visible
11 Oct - 06:39:12 10° N 06:44:03 31° ENE 06:49:15 10° SE daylight
11 Oct - 08:22:52 10° WNW 08:27:03 21° WSW 08:31:29 10° SSW daylight
11 Oct - 19:14:38 10° SSW 19:19:43 90° NNE 19:24:18 10° NNE visible
12 Oct - 06:05:56 10° NNE 06:09:45 19° ENE 06:13:47 10° ESE daylight
12 Oct - 07:47:34 10° NW 07:52:37 34° WSW 07:58:04 10° S daylight
12 Oct - 18:40:28 10° S 18:45:21 49° ESE 18:49:48 10° NE visible
13 Oct - 05:34:12 10° ENE 05:35:27 11° ENE 05:36:44 10° E daylight
13 Oct - 07:12:45 10° NNW 07:18:14 55° WSW 07:24:12 10° S daylight
13 Oct - 18:06:40 10° S 18:10:58 28° ESE 18:14:55 10° NE visible
13 Oct - 19:51:15 10° WSW 19:53:44 14° WNW 19:56:08 10° NW visible
14 Oct - 06:38:17 10° NNW 06:43:52 90° NW 06:50:00 10° SSE daylight
14 Oct - 17:33:31 10° SSE 17:36:32 16° ESE 17:39:24 10° ENE daylight
14 Oct - 19:15:27 10° SW 19:19:27 25° WNW 19:23:11 10° NNW visible
15 Oct - 06:04:06 10° N 06:09:33 55° ENE 06:15:29 10° SSE daylight
15 Oct - 07:50:48 10° W 07:52:44 12° WSW 07:54:42 10° SW daylight
15 Oct - 18:40:27 10° SW 18:45:10 45° WNW 18:49:30 10° N visible
16 Oct - 05:30:15 10° N 05:35:14 33° ENE 05:40:37 10° SE daylight
16 Oct - 07:14:12 10° WNW 07:18:17 20° WSW 07:22:34 10° SSW daylight
16 Oct - 18:05:52 10° SSW 18:10:52 83° WNW 18:15:24 10° NNE visible
